[[{"header":{"parameterUnit":"m.s-1","parameterCategory":1,"la1":30.2991,"la2":30.254,"lo1":-89.0895,"lo2":-89.0444,"dy":0.0017,"dx":0.0017,"nx":28,"ny":28,"refTime":"2025-11-20T03:00:00:Z","depth":0,"parameterNumber":2,"parameterNumberName":"U-component_of_WINDS"},"data":[0,0,0,0,0,0,0,0,0,0,0,0,0,0,0,0,0,0,0,0,0,0,0,0,0,0,0,0,0,0,0,0,0,0,0,0,0,0,0,0,0,0,0,0,0,0,0,0,0,0,0,0,0,0,0,0,0,0,-1.4253,-1.4253,0,-1.4238,-1.4238,-1.4238,-1.4236,-1.4236,-1.4236,-1.4236,-1.422,-1.4219,-1.4219,0,0,0,0,0,0,0,0,0,0,0,0,0,-1.4276,-1.4276,-1.4253,-1.4253,-1.4252,-1.4238,-1.4238,-1.4238,-1.4236,-1.4236,-1.4236,-1.4237,-1.422,-1.4219,-1.4219,0,0,0,0,0,0,0,0,0,0,0,0,0,-1.4264,-1.4276,-1.4253,-1.425,-1.4249,-1.4238,-1.4238,-1.4238,-1.4236,-1.4236,-1.4236,-1.4237,-1.422,-1.422,-1.4219,-1.4209,0,0,-1.4216,-1.4216,0,0,0,0,0,0,0,0,-1.4265,-1.4264,-1.425,-1.425,-1.4249,-1.4239,-1.424,-1.4228,-1.4236,-1.4241,-1.4236,-1.4237,-1.4226,-1.4225,-1.4222,-1.4208,-1.4208,-1.4216,-1.4215,-1.4215,-1.4215,0,0,0,0,0,0,0,-1.4266,-1.4264,-1.4247,-1.425,-1.425,-1.4248,-1.4247,-1.4238,-1.4232,-1.4241,-1.424,-1.4239,-1.4226,-1.4222,-1.4221,-1.4207,-1.4216,-1.4215,-1.4215,-1.4214,-1.4184,-1.4184,0,0,0,0,0,0,-1.4268,-1.4265,-1.4247,-1.4247,-1.4258,-1.4248,-1.4246,-1.4242,-1.4233,-1.4231,-1.4239,-1.4239,-1.4224,-1.4222,-1.4221,-1.4208,-1.4215,-1.4214,-1.4214,-1.4185,-1.4184,-1.4184,0,0,0,0,0,0,-1.4268,-1.4266,-1.4248,-1.4256,-1.4253,-1.4247,-1.4243,-1.4242,-1.4238,-1.4231,-1.423,-1.4236,-1.4224,-1.4222,-1.4212,-1.4207,-1.4214,-1.4213,-1.4185,-1.4185,-1.4184,-1.4183,0,0,0,0,0,0,-1.4269,-1.4266,-1.4263,-1.4256,-1.4253,-1.424,-1.4243,-1.4241,-1.4237,-1.4237,-1.4229,-1.4227,-1.4224,-1.4213,-1.4211,-1.4206,-1.4212,-1.4185,-1.4185,-1.4184,-1.4184,-1.4183,-1.4182,0,0,0,0,0,-1.427,-1.4263,-1.4263,-1.4261,-1.4249,-1.424,-1.4238,-1.4235,-1.4237,-1.4233,-1.4228,-1.4228,-1.4208,-1.4212,-1.421,-1.4205,-1.4186,-1.4185,-1.4184,-1.4184,-1.4183,-1.4182,0,0,0,0,0,0,-1.427,-1.4262,-1.4262,-1.4253,-1.4247,-1.424,-1.4235,-1.4234,-1.4227,-1.4228,-1.4223,-1.4221,-1.4211,-1.4207,-1.4211,-1.4194,-1.4197,-1.4196,-1.4197,-1.4196,-1.4196,-1.4197,-1.4212,0,0,0,0,0,-1.4269,-1.4263,-1.4256,-1.4249,-1.4246,-1.4241,-1.4237,-1.4235,-1.4229,-1.4226,-1.4221,-1.4214,-1.4206,-1.4201,-1.4194,-1.4183,-1.418,-1.4178,-1.4178,-1.4177,-1.4176,-1.4169,-1.4167,-1.4182,-1.4182,-1.4182,0,0,-1.4267,-1.4262,-1.4259,-1.4249,-1.4244,-1.4237,-1.4239,-1.4232,-1.4227,-1.4225,-1.4215,-1.4211,-1.4203,-1.4192,-1.4187,-1.4188,-1.4171,-1.4176,-1.4176,-1.4175,-1.4168,-1.4166,-1.4165,-1.4182,-1.4182,-1.4182,0,0,-1.426,-1.4256,-1.4249,-1.4244,-1.4237,-1.4234,-1.4232,-1.4224,-1.4222,-1.4212,-1.421,-1.4203,-1.419,-1.4185,-1.418,-1.417,-1.4168,-1.4167,-1.4163,-1.4156,-1.4155,-1.4154,-1.4149,-1.4148,-1.4166,-1.4166,-1.4166,0,-1.4258,-1.4248,-1.4245,-1.4238,-1.4233,-1.4232,-1.4224,-1.422,-1.421,-1.4207,-1.4208,-1.4192,-1.4186,-1.4174,-1.4171,-1.4168,-1.4165,-1.4168,-1.4156,-1.4154,-1.4153,-1.4149,-1.4147,-1.4166,-1.4166,-1.4166,-1.4166,0,-1.4246,-1.4239,-1.4234,-1.4225,-1.422,-1.4213,-1.4208,-1.4203,-1.4201,-1.4198,-1.4187,-1.4181,-1.4171,-1.4168,-1.4166,-1.4155,-1.4156,-1.4157,-1.4159,-1.4152,-1.4147,-1.4146,-1.4166,-1.4166,-1.4166,-1.4166,0,0,-1.4238,-1.4228,-1.4226,-1.4222,-1.4213,-1.4208,-1.42,-1.4191,-1.4187,-1.418,-1.4173,-1.4162,-1.4162,-1.4157,-1.4154,-1.4148,-1.4139,-1.4149,-1.4149,-1.4147,-1.4125,-1.4124,-1.4122,-1.4138,-1.4138,-1.4138,-1.4125,0,-1.4229,-1.4216,-1.4213,-1.4201,-1.4194,-1.4192,-1.4185,-1.4179,-1.4175,-1.4167,-1.4163,-1.4154,-1.4156,-1.4153,-1.4147,-1.4141,-1.4134,-1.4142,-1.413,-1.413,-1.4131,-1.412,-1.4119,-1.4107,-1.4123,-1.4123,-1.4123,0,-1.4217,-1.421,-1.4198,-1.419,-1.4187,-1.4181,-1.4172,-1.4166,-1.4158,-1.4155,-1.4149,-1.4147,-1.4137,-1.4141,-1.4127,-1.4133,-1.4128,-1.4124,-1.4123,-1.4121,-1.4125,-1.4116,-1.4103,-1.4101,-1.412,-1.4121,-1.4121,0,-1.4212,-1.42,-1.419,-1.4187,-1.4177,-1.4173,-1.4169,-1.4161,-1.4156,-1.4148,-1.4145,-1.4136,-1.4131,-1.4123,-1.4118,-1.4122,-1.4105,-1.4108,-1.4101,-1.4101,-1.4097,-1.4097,-1.4082,-1.4095,-1.4095,-1.4096,-1.4096,0,-1.4202,-1.4194,-1.4188,-1.4182,-1.4173,-1.4169,-1.4159,-1.4155,-1.4148,-1.4141,-1.4139,-1.4132,-1.4126,-1.4118,-1.4114,-1.4102,-1.41,-1.4097,-1.4096,-1.4097,-1.4097,-1.4093,-1.4093,-1.4095,-1.4095,-1.4095,-1.4095,0,-1.4194,-1.419,-1.4179,-1.4171,-1.4169,-1.4162,-1.4155,-1.4149,-1.4145,-1.4135,-1.4132,-1.4126,-1.4116,-1.411,-1.4098,-1.4095,-1.4082,-1.4082,-1.4085,-1.4084,-1.4077,-1.4077,-1.4058,-1.4055,-1.4071,-1.4071,-1.4071,0,-1.4188,-1.4181,-1.4173,-1.4168,-1.4163,-1.4156,-1.415,-1.4146,-1.414,-1.4131,-1.4125,-1.4115,-1.4107,-1.4091,-1.4084,-1.4075,-1.4073,-1.4067,-1.4072,-1.4073,-1.4072,-1.4072,-1.4071,-1.4066,-1.4066,-1.4066,-1.4066,0,-1.4176,-1.4174,-1.4167,-1.4158,-1.4152,-1.4145,-1.4138,-1.4134,-1.4128,-1.4122,-1.4112,-1.4106,-1.4093,-1.4083,-1.4072,-1.4067,-1.4065,-1.4065,-1.4062,-1.4063,-1.4064,-1.4062,-1.4081,-1.4065,-1.4065,-1.4065,-1.4065,-1.4065,-1.4168,-1.4162,-1.4155,-1.4147,-1.4141,-1.4134,-1.4128,-1.4123,-1.4114,-1.4104,-1.4102,-1.4091,-1.4082,-1.4068,-1.4062,-1.4053,-1.4054,-1.4051,-1.405,-1.4049,-1.4048,-1.4066,-1.4051,-1.4051,-1.4051,-1.4051,-1.4051,0,-1.4156,-1.4151,-1.4143,-1.4134,-1.4127,-1.4126,-1.4118,-1.4112,-1.4103,-1.4095,-1.4087,-1.4075,-1.4065,-1.4057,-1.4047,-1.4041,-1.4039,-1.4038,-1.4038,-1.4036,-1.4049,-1.4051,-1.4039,-1.4039,-1.4039,-1.4039,-1.4039,-1.4039,-1.4149,-1.4138,-1.4135,-1.4122,-1.4117,-1.4106,-1.4102,-1.4095,-1.4089,-1.4076,-1.4067,-1.4063,-1.4055,-1.4043,-1.4033,-1.4031,-1.4027,-1.4025,-1.4023,-1.4034,-1.4036,-1.4037,-1.4039,-1.4025,-1.4025,-1.4011,-1.4011,-1.4011]},{"header":{"parameterUnit":"m.s-1","parameterCategory":1,"la1":30.2991,"la2":30.254,"lo1":-89.0895,"lo2":-89.0444,"dy":0.0017,"dx":0.0017,"nx":28,"ny":28,"refTime":"2025-11-20T03:00:00:Z","depth":0,"parameterNumber":3,"parameterNumberName":"V-component_of_WINDS"},"data":[0,0,0,0,0,0,0,0,0,0,0,0,0,0,0,0,0,0,0,0,0,0,0,0,0,0,0,0,0,0,0,0,0,0,0,0,0,0,0,0,0,0,0,0,0,0,0,0,0,0,0,0,0,0,0,0,0,0,4.1426,4.1427,0,4.1492,4.1493,4.1494,4.1489,4.1488,4.1487,4.1486,4.1547,4.155,4.1552,0,0,0,0,0,0,0,0,0,0,0,0,0,4.1291,4.1294,4.1426,4.1427,4.1428,4.1492,4.1493,4.1494,4.1489,4.1488,4.1487,4.1486,4.1546,4.1549,4.1552,0,0,0,0,0,0,0,0,0,0,0,0,0,4.1353,4.1295,4.1426,4.1433,4.1435,4.1492,4.1493,4.1494,4.1489,4.1488,4.1486,4.1485,4.1545,4.1549,4.1553,4.1605,0,0,4.1564,4.1566,0,0,0,0,0,0,0,0,4.1349,4.1358,4.1431,4.1433,4.1435,4.1481,4.1468,4.1531,4.149,4.1468,4.1486,4.1484,4.1526,4.1531,4.1546,4.1608,4.161,4.1565,4.1567,4.1569,4.157,0,0,0,0,0,0,0,4.1345,4.1355,4.1452,4.1433,4.1434,4.1432,4.1439,4.148,4.1504,4.147,4.147,4.1478,4.1526,4.1543,4.1548,4.1611,4.1564,4.1568,4.157,4.1572,4.1721,4.1723,0,0,0,0,0,0,4.134,4.1351,4.145,4.1454,4.1388,4.1435,4.1443,4.1467,4.1504,4.1508,4.1479,4.1478,4.1537,4.1543,4.155,4.1616,4.1568,4.1572,4.1574,4.1719,4.1722,4.1723,0,0,0,0,0,0,4.1337,4.1349,4.1447,4.1403,4.1415,4.1439,4.1466,4.1469,4.1486,4.1511,4.1515,4.1492,4.1536,4.1545,4.1592,4.1618,4.1574,4.1577,4.1717,4.172,4.1722,4.1747,0,0,0,0,0,0,4.1333,4.1348,4.1369,4.1403,4.1418,4.149,4.1468,4.1472,4.1493,4.1492,4.1524,4.1528,4.1536,4.1587,4.1596,4.1622,4.158,4.1715,4.1719,4.1722,4.1744,4.175,4.1755,0,0,0,0,0,4.1328,4.1371,4.137,4.1382,4.1445,4.1492,4.15,4.151,4.1495,4.1517,4.1533,4.1527,4.1613,4.1592,4.1602,4.163,4.1714,4.1718,4.1721,4.1741,4.1749,4.1755,0,0,0,0,0,0,4.1336,4.1376,4.1375,4.143,4.1458,4.1491,4.1518,4.1517,4.1548,4.1545,4.1554,4.1561,4.161,4.1624,4.1599,4.1683,4.1661,4.1667,4.1673,4.168,4.1686,4.1682,4.1583,0,0,0,0,0,4.1345,4.1381,4.1413,4.1459,4.1473,4.1493,4.1514,4.152,4.1548,4.1559,4.1578,4.1604,4.1638,4.1659,4.1691,4.1745,4.1753,4.1769,4.1775,4.1779,4.1785,4.1817,4.1826,4.1736,4.1736,4.1736,0,0,4.1362,4.1388,4.141,4.1461,4.1483,4.152,4.1503,4.1541,4.1569,4.1564,4.1612,4.1627,4.1656,4.1709,4.1732,4.1722,4.1812,4.1784,4.1788,4.1791,4.1822,4.1831,4.1838,4.1739,4.1738,4.1738,0,0,4.1413,4.1436,4.1478,4.1502,4.1537,4.155,4.156,4.1594,4.1605,4.1653,4.1651,4.1682,4.1739,4.1761,4.178,4.1841,4.1838,4.1851,4.1881,4.1912,4.1919,4.1926,4.195,4.1958,4.1856,4.1856,4.1856,0,4.143,4.1487,4.1499,4.154,4.1563,4.1563,4.1606,4.1627,4.1669,4.1684,4.1672,4.1746,4.1765,4.1824,4.1839,4.1853,4.1866,4.1848,4.1918,4.1924,4.193,4.1954,4.1962,4.1858,4.1857,4.1857,4.1857,0,4.1507,4.1547,4.1577,4.1622,4.1647,4.1689,4.1706,4.173,4.1734,4.1748,4.1798,4.1822,4.186,4.1874,4.1876,4.1933,4.1926,4.1916,4.1894,4.194,4.1963,4.1971,4.186,4.1859,4.1859,4.1859,0,0,4.1565,4.1618,4.1629,4.1651,4.169,4.172,4.1761,4.1801,4.1823,4.1852,4.1887,4.1936,4.1928,4.1949,4.1954,4.1981,4.2032,4.1967,4.1968,4.1981,4.2099,4.2109,4.2119,4.2029,4.203,4.2032,4.2097,0,4.1623,4.1699,4.1712,4.1778,4.1816,4.1817,4.1853,4.188,4.1895,4.1928,4.1942,4.1979,4.1963,4.1976,4.2003,4.202,4.2056,4.2015,4.2062,4.2064,4.2058,4.213,4.214,4.2201,4.2106,4.2107,4.2108,0,4.17,4.1735,4.1807,4.1844,4.186,4.1892,4.1931,4.1962,4.1993,4.2002,4.2027,4.2029,4.2072,4.2047,4.2106,4.2078,4.2097,4.2108,4.2111,4.2118,4.209,4.2141,4.222,4.223,4.2121,4.212,4.2119,0,4.1739,4.1803,4.1855,4.1873,4.1916,4.194,4.1958,4.1988,4.2012,4.2045,4.2061,4.2097,4.2117,4.2145,4.2156,4.2137,4.2215,4.2191,4.2224,4.2224,4.2242,4.2242,4.2329,4.2251,4.2251,4.225,4.225,0,4.1803,4.1847,4.1874,4.1906,4.1956,4.1969,4.2017,4.2035,4.2062,4.2097,4.2097,4.213,4.2142,4.2176,4.2185,4.2234,4.2242,4.2251,4.2253,4.2252,4.2252,4.2267,4.2264,4.2253,4.2252,4.2252,4.2251,0,4.1855,4.1875,4.1932,4.197,4.198,4.2015,4.2047,4.2077,4.2092,4.2136,4.2147,4.217,4.221,4.2225,4.2272,4.2279,4.2336,4.2333,4.2327,4.2328,4.2362,4.236,4.2464,4.2479,4.2389,4.239,4.239,0,4.1896,4.1931,4.1973,4.1999,4.2019,4.2058,4.2084,4.2098,4.2124,4.2164,4.219,4.2231,4.2265,4.2329,4.2349,4.2386,4.2386,4.242,4.2391,4.2391,4.239,4.2389,4.2393,4.2426,4.2427,4.2427,4.2428,0,4.1968,4.1977,4.2015,4.2057,4.2088,4.2121,4.2153,4.2173,4.2192,4.2221,4.2264,4.2291,4.2342,4.2383,4.2421,4.2439,4.2437,4.2437,4.2447,4.2448,4.2444,4.245,4.2345,4.2435,4.2434,4.2433,4.2433,4.2433,4.2017,4.205,4.2086,4.2129,4.2155,4.2186,4.2218,4.2238,4.2275,4.232,4.2325,4.2372,4.2403,4.2455,4.2474,4.2511,4.2501,4.2515,4.2519,4.2523,4.2528,4.2436,4.2517,4.2517,4.2517,4.2517,4.2516,0,4.2092,4.2116,4.2155,4.2202,4.2236,4.2233,4.2269,4.2297,4.2339,4.2369,4.2404,4.2454,4.2495,4.2518,4.2559,4.2583,4.2584,4.2593,4.2593,4.2598,4.2532,4.2521,4.2593,4.2593,4.2593,4.2593,4.2593,4.2593,4.2135,4.219,4.2203,4.2272,4.2294,4.2343,4.2364,4.2392,4.2417,4.2474,4.2509,4.2525,4.2553,4.2596,4.2633,4.2638,4.2654,4.2666,4.2671,4.261,4.2602,4.2594,4.2584,4.2668,4.2668,4.2734,4.2735,4.2735]}]]